Tiempo cada hora Munino

Hoy, 27 Octubre, Martes

Tiempo Temperatura Precipitaciones Viento Presión Humedad
00:00 +1°C° 0 mm 3 mps 760 mmHg 77%
01:00 0°C° 0 mm 3 mps 761 mmHg 77%
02:00 0°C° 0 mm 3 mps 761 mmHg 78%
03:00 +1°C° 0 mm 2 mps 762 mmHg 78%
04:00 -1°C° 0 mm 2 mps 762 mmHg 79%
05:00 -1°C° 0 mm 2 mps 763 mmHg 80%
06:00 -2°C° 0 mm 2 mps 763 mmHg 81%
07:00 -1°C° 0 mm 2 mps 763 mmHg 76%
08:00 0°C° 0 mm 3 mps 764 mmHg 72%
09:00 +1°C° 0 mm 3 mps 764 mmHg 67%
10:00 +2°C° 0 mm 3 mps 765 mmHg 61%
11:00 +2°C° 0 mm 3 mps 765 mmHg 54%
12:00 +4°C° 0 mm 2 mps 765 mmHg 48%
13:00 +5°C° 0 mm 2 mps 765 mmHg 47%
14:00 +5°C° 0 mm 2 mps 765 mmHg 45%
15:00 +5°C° 0 mm 2 mps 765 mmHg 44%
16:00 +4°C° 0 mm 2 mps 765 mmHg 48%
17:00 +3°C° 0 mm 2 mps 765 mmHg 53%
18:00 +2°C° 0 mm 2 mps 765 mmHg 57%
19:00 +2°C° 0 mm 2 mps 766 mmHg 59%
20:00 +1°C° 0 mm 2 mps 766 mmHg 61%
21:00 +1°C° 0 mm 2 mps 766 mmHg 64%
22:00 +1°C° 0 mm 2 mps 766 mmHg 65%
23:00 -1°C° 0 mm 2 mps 766 mmHg 66%

Mañana, 28 Octubre, Miércoles

Tiempo Temperatura Precipitaciones Viento Presión Humedad
00:00 -1°C° 0 mm 2 mps 766 mmHg 68%
01:00 -1°C° 0 mm 2 mps 766 mmHg 69%
02:00 -2°C° 0 mm 2 mps 766 mmHg 70%
03:00 -2°C° 0 mm 2 mps 767 mmHg 71%
04:00 -2°C° 0 mm 2 mps 766 mmHg 71%
05:00 -2°C° 0 mm 2 mps 766 mmHg 72%
06:00 -2°C° 0 mm 2 mps 766 mmHg 73%
07:00 -1°C° 0 mm 2 mps 766 mmHg 68%
08:00 +1°C° 0 mm 2 mps 767 mmHg 63%
09:00 +1°C° 0 mm 3 mps 767 mmHg 58%
10:00 +2°C° 0 mm 3 mps 767 mmHg 53%
11:00 +4°C° 0 mm 3 mps 767 mmHg 47%
12:00 +5°C° 0 mm 3 mps 766 mmHg 42%
13:00 +5°C° 0 mm 4 mps 766 mmHg 42%
14:00 +5°C° 0 mm 4 mps 766 mmHg 42%
15:00 +5°C° 0 mm 4 mps 766 mmHg 42%
16:00 +4°C° 0 mm 3 mps 765 mmHg 48%
17:00 +3°C° 0 mm 3 mps 765 mmHg 53%
18:00 +2°C° 0 mm 3 mps 765 mmHg 58%
19:00 +1°C° 0 mm 3 mps 765 mmHg 60%
20:00 +1°C° 0 mm 3 mps 765 mmHg 62%
21:00 +1°C° 0 mm 3 mps 765 mmHg 63%
22:00 0°C° 0 mm 3 mps 765 mmHg 64%
23:00 0°C° 0 mm 3 mps 765 mmHg 64%

Pasado mañana, 29 Octubre, Jueves

Tiempo Temperatura Precipitaciones Viento Presión Humedad
00:00 0°C° 0 mm 3 mps 765 mmHg 65%
01:00 0°C° 0 mm 3 mps 765 mmHg 65%
02:00 0°C° 0 mm 3 mps 764 mmHg 65%
03:00 -1°C° 0 mm 3 mps 764 mmHg 66%
04:00 -1°C° 0 mm 3 mps 764 mmHg 66%
05:00 -1°C° 0 mm 3 mps 764 mmHg 67%
06:00 -1°C° 0 mm 3 mps 764 mmHg 67%
07:00 -1°C° 0 mm 4 mps 764 mmHg 63%
08:00 0°C° 0 mm 4 mps 764 mmHg 58%
09:00 +3°C° 0 mm 4 mps 764 mmHg 54%
10:00 +4°C° 0 mm 4 mps 764 mmHg 50%
11:00 +6°C° 0 mm 5 mps 764 mmHg 47%
12:00 +7°C° 0 mm 5 mps 763 mmHg 44%
13:00 +8°C° 0 mm 5 mps 763 mmHg 44%
14:00 +8°C° 0 mm 5 mps 763 mmHg 45%
15:00 +8°C° 0 mm 5 mps 762 mmHg 45%
16:00 +7°C° 0 mm 4 mps 762 mmHg 51%
17:00 +6°C° 0 mm 4 mps 762 mmHg 57%
18:00 +5°C° 0 mm 4 mps 762 mmHg 63%
19:00 +4°C° 0 mm 4 mps 761 mmHg 64%
20:00 +4°C° 0 mm 4 mps 761 mmHg 65%
21:00 +4°C° 0 mm 4 mps 761 mmHg 66%
22:00 +4°C° 0 mm 4 mps 761 mmHg 68%
23:00 +4°C° 0 mm 4 mps 761 mmHg 69%

30 Octubre, Viernes

Tiempo Temperatura Precipitaciones Viento Presión Humedad
00:00 +3°C° 0 mm 5 mps 760 mmHg 71%
01:00 +3°C° 0 mm 4 mps 760 mmHg 71%
02:00 +3°C° 0 mm 4 mps 760 mmHg 70%
03:00 +3°C° 0 mm 4 mps 760 mmHg 70%
04:00 +3°C° 0 mm 4 mps 759 mmHg 69%
05:00 +2°C° 0 mm 5 mps 759 mmHg 68%
06:00 +2°C° 0 mm 5 mps 759 mmHg 68%
07:00 +3°C° 0 mm 5 mps 759 mmHg 64%
08:00 +5°C° 0 mm 5 mps 759 mmHg 61%
09:00 +5°C° 0 mm 5 mps 759 mmHg 57%
10:00 +6°C° 0 mm 5 mps 759 mmHg 55%
11:00 +7°C° 0 mm 6 mps 758 mmHg 52%
12:00 +8°C° 0 mm 6 mps 758 mmHg 49%
13:00 +8°C° 0 mm 6 mps 758 mmHg 50%
14:00 +8°C° 0 mm 6 mps 757 mmHg 50%
15:00 +8°C° 0 mm 6 mps 757 mmHg 50%
16:00 +7°C° 0 mm 6 mps 757 mmHg 51%
17:00 +7°C° 0 mm 5 mps 757 mmHg 53%
18:00 +7°C° 0 mm 5 mps 757 mmHg 54%
19:00 +6°C° 0 mm 5 mps 756 mmHg 53%
20:00 +6°C° 0 mm 5 mps 756 mmHg 52%
21:00 +6°C° 0 mm 5 mps 756 mmHg 51%
22:00 +6°C° 0 mm 4 mps 756 mmHg 51%
23:00 +6°C° 0 mm 4 mps 756 mmHg 51%

31 Octubre, Sábado

Tiempo Temperatura Precipitaciones Viento Presión Humedad
00:00 +6°C° 0 mm 4 mps 756 mmHg 51%
01:00 +6°C° 0 mm 4 mps 755 mmHg 51%
02:00 +5°C° 0 mm 4 mps 755 mmHg 52%
03:00 +5°C° 0 mm 4 mps 755 mmHg 52%
04:00 +5°C° 0 mm 4 mps 755 mmHg 51%
05:00 +5°C° 0 mm 4 mps 755 mmHg 50%
06:00 +5°C° 0 mm 4 mps 755 mmHg 49%
07:00 +5°C° 0 mm 4 mps 755 mmHg 48%
08:00 +6°C° 0 mm 5 mps 755 mmHg 47%
09:00 +7°C° 0 mm 5 mps 755 mmHg 46%
10:00 +8°C° 0 mm 5 mps 755 mmHg 46%
11:00 +9°C° 0 mm 5 mps 755 mmHg 46%
12:00 +11°C° 0 mm 4 mps 756 mmHg 46%
13:00 +10°C° 0 mm 4 mps 756 mmHg 48%
14:00 +10°C° 0 mm 4 mps 756 mmHg 50%
15:00 +10°C° 0 mm 3 mps 756 mmHg 52%
16:00 +10°C° 0 mm 3 mps 756 mmHg 54%
17:00 +9°C° 0 mm 3 mps 756 mmHg 55%
18:00 +9°C° 0 mm 3 mps 756 mmHg 56%
19:00 +9°C° 0 mm 3 mps 756 mmHg 58%
20:00 +8°C° 0 mm 3 mps 756 mmHg 59%
21:00 +8°C° 0 mm 3 mps 757 mmHg 60%
22:00 +8°C° 0 mm 2 mps 757 mmHg 59%
23:00 +8°C° 0 mm 2 mps 757 mmHg 58%

1 Noviembre, Domingo

Tiempo Temperatura Precipitaciones Viento Presión Humedad
00:00 +9°C° 0 mm 2 mps 757 mmHg 57%
01:00 +9°C° 0 mm 2 mps 757 mmHg 56%
02:00 +10°C° 0 mm 1 mps 757 mmHg 55%
03:00 +10°C° 0 mm 1 mps 757 mmHg 55%
04:00 +9°C° 0 mm 1 mps 758 mmHg 55%
05:00 +9°C° 0 mm 1 mps 758 mmHg 56%
06:00 +8°C° 0 mm 1 mps 758 mmHg 56%
07:00 +8°C° 0 mm 2 mps 758 mmHg 54%
08:00 +9°C° 0 mm 2 mps 758 mmHg 51%
09:00 +9°C° 0 mm 2 mps 759 mmHg 49%
10:00 +10°C° 0 mm 2 mps 759 mmHg 45%
11:00 +13°C° 0 mm 2 mps 759 mmHg 41%
12:00 +14°C° 0 mm 2 mps 759 mmHg 37%
13:00 +14°C° 0 mm 2 mps 759 mmHg 38%
14:00 +14°C° 0 mm 2 mps 760 mmHg 38%
15:00 +14°C° 0 mm 2 mps 760 mmHg 39%
16:00 +13°C° 0 mm 2 mps 760 mmHg 43%
17:00 +12°C° 0 mm 2 mps 760 mmHg 47%
18:00 +9°C° 0 mm 2 mps 760 mmHg 51%
19:00 +9°C° 0 mm 2 mps 761 mmHg 53%
20:00 +8°C° 0 mm 2 mps 761 mmHg 56%
21:00 +9°C° 0 mm 1 mps 761 mmHg 59%
22:00 +8°C° 0 mm 1 mps 761 mmHg 61%
23:00 +8°C° 0 mm 1 mps 762 mmHg 62%
Mostrar más

Necesitamos Su Consentimiento

Meteoprog y nuestros Proveedores de Servicios pueden almacenar y acceder a sus datos personales como cookies, identificadores de dispositivo u otras tecnologías similares de su dispositivo y procesar dichos datos para personalizar contenido y anuncios, además de ofrecer funciones de redes sociales y analizar el tráfico.

  • Almacenar y/o acceder a información en su dispositivo

    Se puede almacenar o acceder a cookies, identificadores de dispositivo u otra información de su dispositivo para los fines anteriormente indicados.

  • Anuncios y contenido personalizados, medición de anuncios y contenido, percepciones del público, y desarrollo de productos

    Los anuncios y el contenido pueden personalizarse en base a su perfil. Se pueden añadir más datos para personalizar mejor los anuncios y contenidos. Se puede medir el rendimiento de los anuncios y contenidos. Se puede obtener la percepción sobre el público que ha visto los anuncios y contenidos. Dichos datos pueden usarse para desarrollar o mejorar la experiencia del usuario, sistemas y software.

Al hacer clic en ‘Estoy De Acuerdo’ usted permitirá el uso de las cookies, identificadores de dispositivo, balizas web u otras tecnologías similares indicadas. Su configuración puede cambiarse desde el navegador de su dispositivo.

Para ciertos fines, los intereses legítimos pueden ser considerados por encima del consentimiento. Puede leer más sobre ello en nuestra Política de Privacidad y Cookies.